STARLINK-4383, 53473

Orbit data source: Space-Track

STARLINK-4383, 53473 is a payload satellite owned by SpaceX/Seattle (US) in SSO that was launched on Fri, 12 Aug 2022 UTC via an FALCON 9 launch vehicle from the Air Force Western Test Range (AFWTR). Payload-class satellites include a variety of spacecraft equipped with specific instruments for various scientific and technological missions. These include communications satellites like Starlink; space stations such as the ISS; scientific satellites like the Hubble; Earth observation satellites from companies like Planet Labs, Umbra, and HawkEye 360; GPS; miniature CubeSats for education and research; and military/defense satellites.

Loading next visibility...
Identifier
53473, 2022-099J
Orbit
SSO
Country
Flag of USUS
Related business
Manufacturer
SpaceX/Seattle
Mission
Operational Commercial Communications
Bus & Motor
STARLINK, Unknown motor
Mass
300 kg wet, ~275 kg dry
Launch date (UTC)
2022-08-12 (4 years ago)
Launch vehicle
FALCON 9
Launch site
Air Force Western Test Range (AFWTR)
Object type
Payload
Rocket body
Debris
Shape & HBR
Box + 1 Pan, 10.1 m
Radar Cross Section
13.562 m², Large (>1 m²)

Expand to show TLE details & history
Last TLE update: 5 hours ago

TLE from 5 hours ago
0 STARLINK-4383
1 53473U 22099J   26145.66668981  .00114608  00000-0  44732-2 0  9994
2 53473  97.5997 267.6150 0001266  73.0470 306.7379 15.25418983  5807
Epoch: 2026-05-25T16:00Z
TLE epoch observation values (Epoch: 2026-05-25T16:00:01.999Z)
Latitude
19.59353°
Longitude
141.64834°
Altitude
491.637 km
Speed
7.621 km/s
True Right ascension
17h 39m 37s
True Declination
19° 28' 51"
Sunlit
Object was in full shadow at epoch
Visualization orbit readout
Latitude
Unknown
Longitude
Unknown
Altitude
Unknown
Speed
Unknown
Apparent Right ascension
Unknown
Apparent Declination
Unknown
Sunlit
N/A
Visualization observer readout
Local Sidereal Time
06:09:33
Azimuth
Unknown
Elevation
Unknown
Doppler factor
Unknown
Orbital elements
Apogee altitude
487.364 km
Perigee altitude
485.626 km
Semi-major axis
6,864.632 km
Eccentricity
0.00013
Inclination
97.5997°
RAAN
267.615°
Arg. of periapsis
73.047°
True anomaly
306.72627°
Mean anomaly
306.7379°
Eccentric anomaly
306.73209°
Mean motion
3.81608 °/min
Orbital period
94.34 mins
BSTAR
0.0044732
Loading maneuver chart data...
Computing Atmospheric mass density...
Loading historical data...
Loading historical data...
Loading historical data...
Loading historical data...
Loading historical data...
Loading historical data...
Loading historical data...

Documentation

Showing up to 5 results
|